Skip Page Navigation
NASA JPL Caltech
NASA Logo - Jet Propulsion Laboratory + View the NASA Portal
+ Center for Near-Earth Object Studies
JPL Home Earth Solar System Stars & Galaxies Technology
JPL Solar System Dynamics
BODIES ORBITS EPHEMERIDES TOOLS PHYSICAL DATA DISCOVERY FAQ SITE MAP
IMPORTANT: The SSD Announcement email list is now available. Major changes are coming in the near future, including possible hostname and/or URL changes. To be notified of such changes, subscribe to this email list.

Please visit this page for more details.


JPL Small-Body Database Browser
Search: [ help ]  
226246 (2002 XP60)
Classification: Main-belt Asteroid          SPK-ID: 2226246
Ephemeris | Orbit Diagram | Orbital Elements | Mission Design | Physical Parameters | Discovery Circumstances | Close-Approach Data ]

[ show orbit diagram ]
Orbital Elements at Epoch 2458600.5 (2019-Apr-27.0) TDB
Reference: JPL 12 (heliocentric ecliptic J2000)
 Element Value Uncertainty (1-sigma)   Units 
e .05191794178339306 9.379e-08  
a 2.333379450073577 1.8486e-08 au
q 2.212235191626092 2.1216e-07 au
i 6.715837340610171 6.0665e-06 deg
node 261.0065884294705 7.7005e-05 deg
peri 264.4282321104823 9.7354e-05 deg
M 130.4632754374785 6.0866e-05 deg
tp 2458128.695306384409
(2018-Jan-10.19530638)
0.000219 TDB
period 1301.896561557733
3.56
1.5472e-05
4.236e-08
d
yr
n .2765196641807366 3.2861e-09 deg/d
Q 2.454523708521063 1.9446e-08 au
  Orbit Determination Parameters
   # obs. used (total)      315  
   data-arc span      7116 days (19.48 yr)  
   first obs. used      2000-05-05  
   last obs. used      2019-10-29  
   planetary ephem.      DE431  
   SB-pert. ephem.      SB431-N16  
   condition code      0  
   norm. resid. RMS      .60779  
   source      ORB  
   producer      Otto Matic  
   solution date      2019-Nov-08 00:51:22  

Additional Information
 Earth MOID = 1.23159 au 
 Jupiter MOID = 2.55569 au 
 T_jup = 3.558 
[ show covariance matrix ]

Ephemeris | Orbit Diagram | Orbital Elements | Mission Design | Physical Parameters | Discovery Circumstances | Close-Approach Data ]

Physical Parameter Table
Parameter Symbol Value Units Sigma Reference Notes
absolute magnitude H 16.5   n/a MPO297325  

226246 (2002 XP60)          Discovered 2002-Dec-10 by LINEAR at Socorro
Reference: 20091202/Numbers.arcLast Updated: 2009-12-04

[ hide close-approach data ]
Close-Approach Data   ...sorted by Date/Time (TDB)
Date/Time (TDB) Time Uncertainty
(days_HH:MM)
Body Nominal Distance (au) Minimum Distance (au) Maximum Distance (au) V-relative (km/s) V-infinity (km/s) JD (TDB) Time Uncertainty (minutes) Semi-major axis (km) Semi-minor axis (km) range-LOV angle (deg) N-sigma BP Orbit Ref. Reference Modified
1909-Feb-06 03:43 < 00:01 Juno 0.0469874771499448 0.0469830999549688 0.0469918655235329 7.06006541793969 7.06006538126596 2418343.655080314 0.770843308864988 1206.73454953802 59.1297538802716 -79.9486242036545 117019.335441089 T 12 CATAB v2.0f-lin.ifort 2019-Nov-08 00:51:24 2019-Nov-08 00:51
1976-Jul-07 04:14 < 00:01 Iris 0.0290211247913079 0.0290176523828761 0.0290245989009495 5.22451009462126 5.22451005670607 2442966.676537702 0.608342555367822 413.398508282573 62.2649806010657 -66.7124120304577 64158.3247597121 T 12 CATAB v2.0f-lin.ifort 2019-Nov-08 00:51:24 2019-Nov-08 00:51

Alternate Designations
 2002 XP60 = 2005 SJ205 
Ephemeris | Orbit Diagram | Orbital Elements | Mission Design | Physical Parameters | Discovery Circumstances | Close-Approach Data ]
ABOUT SSD CREDITS/AWARDS PRIVACY/COPYRIGHT GLOSSARY LINKS
FirstGov 2020-Jan-26 18:12 UT
(server date/time)  
NASA Home Page
Site Manager:   Ryan S. Park
Webmaster  Alan B. Chamberlin